Ellensburg, WA

1:39 PM PDT on April 28, 2017 (GMT -0700)
Bowers

Weather History for KELN - October, 2011

Change the Weather History Date:

Monday, October 10, 2011

  Actual Average (KYKM) Record (KYKM)
Temperature  
Mean Temperature 52 °F -  
Max Temperature 60 °F 67 °F 81 °F (1988)
Min Temperature 46 °F 38 °F 24 °F (2009)
Degree Days  
Heating Degree Days 12    
Growing Degree Days 2 (Base 50)    
Moisture  
Dew Point 46 °F    
Average Humidity 83    
Maximum Humidity 93    
Minimum Humidity 67    
Precipitation  
Precipitation 0.04 in - - ()
Sea Level Pressure  
Sea Level Pressure 29.66 in    
Wind  
Wind Speed 3 mph (East)    
Max Wind Speed 8 mph    
Max Gust Speed -    
Visibility 7 miles    
Events Fog , Rain    
Averages and records for this station are not official NWS values.
T = Trace of Precipitation, MM = Missing Value Source: NWS Daily Summary

Daily Weather History Graph

Daily Weather History Graph

Search for Another Location

Airport or City:

Trip Planner

Search our weather history database for the weather conditions in past years. The results will help you decide how hot, cold, wet, or windy it might be!

Date:

Astronomy

Oct. 10, 2011 Rise Set
Actual Time 7:12 AM PDT 6:24 PM PDT
Civil Twilight 6:42 AM PDT 6:54 PM PDT
Nautical Twilight 6:07 AM PDT 7:30 PM PDT
Astronomical Twilight 5:31 AM PDT 8:05 PM PDT
Moon 5:30 PM PDT (10/10) 5:57 AM PDT (10/10)
Length of Visible Light 12h 12m
Length of Day
11h 11m
Waxing Gibbous, 98% of the Moon is Illuminated
Oct 10
Waxing Gibbous
Oct 11
Full
Oct 19
Last Quarter
Oct 26
New
Nov 2
First Quarter

Hourly Weather History & Observations

Time (PDT) Temp. Windchill Dew Point Humidity Pressure Visibility Wind Dir Wind Speed Gust Speed Precip Events Conditions
12:53 AM 51.1 °F - 46.9 °F 86% 29.80 in 10.0 mi Calm Calm - N/A   Overcast
1:53 AM 50.0 °F - 46.0 °F 86% 29.77 in 10.0 mi Calm Calm - N/A   Partly Cloudy
2:24 AM 48.2 °F - 44.6 °F 87% 29.78 in 1.8 mi Calm Calm - N/A   Partly Cloudy
2:44 AM 48.2 °F - 46.4 °F 93% 29.77 in 3.0 mi Calm Calm - N/A   Scattered Clouds
2:53 AM 48.9 °F - 46.0 °F 90% 29.75 in 4.0 mi Calm Calm - N/A   Scattered Clouds
3:53 AM 46.9 °F - 43.0 °F 86% 29.74 in 8.0 mi Calm Calm - N/A   Partly Cloudy
4:53 AM 50.0 °F - 46.0 °F 86% 29.72 in 10.0 mi NE 5.8 mph - N/A   Partly Cloudy
5:37 AM 46.4 °F 44.3 °F 44.6 °F 93% 29.70 in 2.0 mi South 4.6 mph - N/A   Clear
5:42 AM 46.4 °F 43.5 °F 44.6 °F 93% 29.70 in 1.8 mi South 5.8 mph - N/A   Partly Cloudy
5:47 AM 46.4 °F 44.3 °F 44.6 °F 93% 29.69 in 0.8 mi South 4.6 mph - N/A   Scattered Clouds
6:53 AM 48.9 °F - 46.0 °F 90% 29.69 in 0.2 mi NNE 4.6 mph - N/A Fog Fog
7:13 AM 48.2 °F - 46.4 °F 93% 29.69 in 0.5 mi North 4.6 mph - N/A Fog Fog
7:18 AM 48.2 °F - 46.4 °F 93% 29.69 in 1.2 mi Calm Calm - 0.00 in Rain Light Rain
7:22 AM 48.2 °F - 46.4 °F 93% 29.68 in 3.0 mi NE 3.5 mph - 0.00 in Rain Light Rain
7:44 AM 48.2 °F - 46.4 °F 93% 29.66 in 5.0 mi ENE 5.8 mph - 0.02 in Rain Light Rain
7:53 AM 50.0 °F - 46.0 °F 86% 29.67 in 7.0 mi ENE 5.8 mph - 0.02 in Rain Light Rain
11:10 AM 53.6 °F - 48.2 °F 82% 29.63 in 10.0 mi ESE 6.9 mph - N/A   Overcast
11:53 AM 54.0 °F - 46.9 °F 77% 29.62 in 10.0 mi ESE 4.6 mph - N/A   Overcast
12:53 PM 55.9 °F - 48.0 °F 75% 29.60 in 10.0 mi East 6.9 mph - N/A   Overcast
1:53 PM 57.0 °F - 46.9 °F 69% 29.60 in 10.0 mi SE 4.6 mph - N/A   Overcast
2:53 PM 57.0 °F - 46.9 °F 69% 29.57 in 10.0 mi SE 4.6 mph - N/A   Overcast
3:53 PM 59.0 °F - 48.0 °F 67% 29.56 in 10.0 mi ESE 4.6 mph - N/A   Overcast
4:00 PM 57.2 °F - 46.4 °F 67% 29.56 in 10.0 mi ESE 3.5 mph - N/A   Overcast
4:53 PM 59.0 °F - 48.0 °F 67% 29.55 in 10.0 mi Calm Calm - N/A   Overcast
5:53 PM 57.9 °F - 48.0 °F 70% 29.55 in 10.0 mi Calm Calm - 0.00 in   Mostly Cloudy
7:53 PM 53.1 °F - 48.9 °F 86% 29.59 in 10.0 mi NNW 6.9 mph - 0.02 in   Mostly Cloudy
8:53 PM 54.0 °F - 48.0 °F 80% 29.60 in 10.0 mi WNW 8.1 mph - N/A   Overcast
9:53 PM 52.0 °F - 46.9 °F 83% 29.60 in 10.0 mi SSW 3.5 mph - N/A   Clear
10:53 PM 51.1 °F - 45.0 °F 80% 29.60 in 10.0 mi NNW 5.8 mph - N/A   Clear
11:53 PM 48.0 °F - 44.1 °F 86% 29.60 in 10.0 mi NW 3.5 mph - N/A   Scattered Clouds